Regional Weather Roundup
Issued by NWS Albany, NY

Current Version | Previous Version | Text Only | Print | Product List | Glossary On
Versions: 1 2 3 4 5 6 7 8 9 10 11 12 13 14 15 16 17 18 19 20 21 22 23 24 25 26 27
000
ASUS41 KALY 300310
RWRALY

NEW YORK STATE HOURLY WEATHER ROUNDUP
NATIONAL WEATHER SERVICE ALBANY NY
1100 PM EDT FRI JUL 29 2016

NOTE: "FAIR" INDICATES FEW OR NO CLOUDS BELOW 12,000 FEET WITH NO
SIGNIFICANT WEATHER AND/OR NO OBSTRUCTIONS TO VISIBILITY.

NYZ032-033-038>043-046>054-057>066-NYZ062>081-082-084-300400-
EAST


CITY           SKY/WX    TMP DP  RH WIND       PRES   REMARKS
ALBANY         MOCLDY    74  57  55 N10       29.96R
GLENS FALLS    CLEAR     72  58  61 N8        29.97R
POUGHKEEPSIE   CLEAR     75  68  78 NE3       29.91R
NEWBURGH       PTCLDY    72  72 100 CALM      29.95R
MONTGOMERY     CLEAR     70  69  97 CALM      29.93R FOG
WHITE PLAINS   CLEAR     73  68  84 S3        29.93S
ISLIP          PTCLDY    73  69  87 S5        29.92R
NEW YORK CITY  MOCLDY    79  68  69 SE7       29.92R
CENTRAL PARK   CLEAR     78  68  71 CALM      29.94R
$$

NYZ005>009-017-018-044>046-055-056-300400-
CENTRAL


CITY           SKY/WX    TMP DP  RH WIND       PRES   REMARKS
FULTON         CLEAR     70  59  68 NE5       30.00R
SYRACUSE       PTCLDY    68  59  73 CALM      29.98R
ROME           CLEAR     69  57  65 S5        29.99R
ELMIRA         CLEAR     71  57  61 E6        29.99R
BINGHAMTON     CLOUDY    70  54  56 N8        30.02R
MONTICELLO     CLEAR     70  68  94 CALM      30.00R
$$

NYZ026>034-041>043-087-300400-
NORTH


CITY           SKY/WX    TMP DP  RH WIND       PRES   REMARKS
WATERTOWN      PTCLDY    68  54  60 NE9       30.01R
FORT DRUM      NOT AVBL
MASSENA        PTCLDY    66  54  65 N6        30.03R
SARANAC LAKE   CLOUDY    55  52  89 CALM      30.04R
PLATTSBURGH    PTCLDY    68  59  73 NW5       29.99R
$$

NYZ001>004-010>016-019>021-085-300400-
WEST


CITY           SKY/WX    TMP DP  RH WIND       PRES   REMARKS
NIAGARA FALLS  CLOUDY    73  60  63 NE3       30.00R
BUFFALO        MOCLDY    72  61  68 NE5       30.00R
DUNKIRK        PTCLDY    71  62  73 NE6       29.99R
JAMESTOWN      CLOUDY    66  64  94 CALM      30.03R
WELLSVILLE     CLOUDY    68  59  73 NE5       30.07R
ROCHESTER      CLEAR     70  60  70 CALM      30.00S
PENN YAN       CLEAR     65  56  72 CALM      30.01S
$$

             KEY
       WCI = WIND CHILL INDEX
       VSB = VISIBILITY
       HX  = HEAT INDEX
$$




USA.gov is the U.S. government's official web portal to all federal, state and local government web resources and services.